User: anonymous   Login
Location: Trois-Rivi�res
(46.3500°N, 72.5500°W)
Time: 20:26:59
(UTC-04:00)
Language:

Cosmos 1975 - Orbit

View from above orbital plane
View from above orbital plane
View from above satellite
View from above satellite

Ground track
Ground track

The orbit data is extracted from the following two-line orbital elements,

1 19573U 88093A   16240.53791056  .00000211  00000-0  13271-4 0  9994
2 19573  82.5181 269.5081 0013593 212.5184 147.5206 15.03803232515673
Epoch (UTC): 27 August 2016 12:54:35
Eccentricity: 0.0013593
inclination: 82.5181°
perigee height: 546 km
apogee height: 564 km
right ascension of ascending node: 269.5081°
argument of perigee: 212.5184°
revolutions per day: 15.03803232
mean anomaly at epoch: 147.5206°
orbit number at epoch: 51567

The dashed part of the orbit path shows where the satellite is in the earth's shadow,  

DLR